Henderson, KY

6:25 PM CDT on September 16, 2019 (GMT -0500)
Henderson City-County

Weather History for KEHR - May, 2019

Change the Weather History Date:

Thursday, May 30, 2019

  Actual Average Record
Temperature  
Mean Temperature 72 °F -  
Max Temperature 77 °F 81 °F 95 °F (1937)
Min Temperature 66 °F 60 °F 37 °F (1947)
Cooling Degree Days 6    
Growing Degree Days 22 (Base 50)    
Moisture  
Dew Point 66 °F    
Average Humidity 86    
Maximum Humidity 97    
Minimum Humidity 66    
Precipitation  
Precipitation 0.11 in - - ()
Sea Level Pressure  
Sea Level Pressure 29.84 in    
Wind  
Wind Speed 7 mph (SW)    
Max Wind Speed 14 mph    
Max Gust Speed -    
Visibility 10 miles    
Events Rain    
Averages and records for this station are not official NWS values.
T = Trace of Precipitation, MM = Missing Value Source: NWS Daily Summary

Daily Weather History Graph

Daily Weather History Graph

Search for Another Location

Airport or City:

Astronomy

May. 30, 2019 Rise Set
Actual Time 5:31 AM CDT 8:05 PM CDT
Civil Twilight 5:00 AM CDT 8:36 PM CDT
Nautical Twilight 4:22 AM CDT 9:14 PM CDT
Astronomical Twilight 3:40 AM CDT 9:56 PM CDT
Moon 3:31 AM CDT (5/30) 4:18 PM CDT (5/30)
Length of Visible Light 15h 35m
Length of Day
14h 34m
Waning Crescent, 15% of the Moon is Illuminated
May 30
Waning Crescent
Jun 3
New
Jun 10
First Quarter
Jun 17
Full
Jun 25
Last Quarter

Hourly Weather History & Observations

Time (CDT) Temp. Dew Point Humidity Pressure Visibility Wind Dir Wind Speed Gust Speed Precip Events Conditions
12:56 AM 66.0 °F 64.9 °F 96% 29.84 in 10.0 mi SE 4.6 mph - 0.01 in Rain Light Rain
1:06 AM 66.2 °F 64.4 °F 94% 29.84 in 10.0 mi SE 5.8 mph - 0.00 in   Mostly Cloudy
1:22 AM 66.2 °F 64.4 °F 94% 29.83 in 10.0 mi SSE 5.8 mph - 0.00 in   Mostly Cloudy
1:47 AM 66.2 °F 64.4 °F 94% 29.80 in 10.0 mi Variable 3.5 mph - 0.00 in   Scattered Clouds
1:56 AM 66.0 °F 64.9 °F 96% 29.80 in 10.0 mi Calm Calm - 0.00 in   Partly Cloudy
2:56 AM 66.0 °F 64.9 °F 96% 29.80 in 10.0 mi SSE 4.6 mph - 0.00 in   Scattered Clouds
3:56 AM 66.9 °F 64.9 °F 93% 29.79 in 10.0 mi SSW 6.9 mph - N/A   Scattered Clouds
4:56 AM 66.9 °F 64.9 °F 93% 29.80 in 10.0 mi SW 6.9 mph - 0.00 in   Partly Cloudy
5:56 AM 66.9 °F 64.9 °F 93% 29.82 in 10.0 mi West 4.6 mph - 0.00 in   Scattered Clouds
6:56 AM 66.9 °F 66.0 °F 97% 29.85 in 10.0 mi SW 4.6 mph - N/A   Overcast
7:56 AM 66.9 °F 66.0 °F 97% 29.84 in 10.0 mi SSW 5.8 mph - 0.06 in Rain Light Rain
8:28 AM 68.0 °F 66.2 °F 94% 29.84 in 10.0 mi SSW 5.8 mph - 0.01 in Rain Light Rain
8:45 AM 68.0 °F 66.2 °F 94% 29.85 in 10.0 mi SSW 6.9 mph - 0.02 in Rain Light Rain
8:56 AM 68.0 °F 66.0 °F 93% 29.85 in 10.0 mi SSW 8.1 mph - 0.02 in Rain Light Rain
9:56 AM 69.1 °F 66.9 °F 93% 29.83 in 10.0 mi SSW 8.1 mph - 0.02 in   Overcast
10:42 AM 69.8 °F 66.2 °F 88% 29.85 in 10.0 mi WSW 8.1 mph - N/A   Overcast
10:56 AM 69.1 °F 66.9 °F 93% 29.85 in 10.0 mi WSW 9.2 mph - N/A   Overcast
11:56 AM 70.0 °F 66.0 °F 87% 29.86 in 10.0 mi SW 10.4 mph - 0.00 in   Overcast
12:19 PM 71.6 °F 66.2 °F 83% 29.85 in 10.0 mi SW 10.4 mph - N/A   Scattered Clouds
12:56 PM 72.0 °F 66.0 °F 81% 29.84 in 10.0 mi WSW 6.9 mph - N/A   Clear
1:56 PM 73.9 °F 66.0 °F 76% 29.85 in 10.0 mi WSW 11.5 mph - N/A   Scattered Clouds
2:12 PM 73.4 °F 66.2 °F 78% 29.84 in 10.0 mi SW 10.4 mph - N/A   Mostly Cloudy
2:45 PM 75.2 °F 66.2 °F 73% 29.84 in 10.0 mi SW 11.5 mph - N/A   Scattered Clouds
2:56 PM 77.0 °F 66.9 °F 71% 29.83 in 10.0 mi SW 12.7 mph - N/A   Partly Cloudy
3:56 PM 77.0 °F 66.0 °F 69% 29.83 in 10.0 mi SW 13.8 mph - N/A   Mostly Cloudy
4:56 PM 77.0 °F 64.9 °F 66% 29.83 in 10.0 mi SW 10.4 mph - N/A   Partly Cloudy
5:56 PM 77.0 °F 66.0 °F 69% 29.82 in 10.0 mi SSW 9.2 mph - N/A   Clear
6:56 PM 75.9 °F 64.9 °F 69% 29.82 in 10.0 mi SW 11.5 mph - N/A   Mostly Cloudy
7:56 PM 73.0 °F 66.0 °F 79% 29.83 in 10.0 mi SW 6.9 mph - N/A   Partly Cloudy
8:56 PM 71.1 °F 64.9 °F 81% 29.84 in 10.0 mi SW 6.9 mph - N/A   Clear
9:56 PM 70.0 °F 64.9 °F 84% 29.86 in 10.0 mi SW 5.8 mph - N/A   Clear
10:56 PM 71.1 °F 64.9 °F 81% 29.88 in 10.0 mi West 5.8 mph - N/A   Mostly Cloudy
11:56 PM 70.0 °F 63.0 °F 78% 29.88 in 10.0 mi West 6.9 mph - N/A   Partly Cloudy